KINEIS-2B

Last updated on Wed Aug 19 2026 00:02:55 GMT+0000 (Coordinated Universal Time)

1 62934U 25028G 26230.14084746 .00000985 00000+0 15908-3 0 9995 2 62934 97.9623 281.8691 0002447 336.4766 23.6330 14.73517782 81785
UTC large
Height (km)
Speed (km/s)
/
Latitude / Longitude
Inclination (degrees)
Orbital Period (minutes)
Azimuth
Elevation
Range (km)
Doppler Factor

Next 0 passes for location: London (51.5072 / 0.1276)

No passes found over London.
KINEIS-2B